星链-4763 (STARLINK-4763 )

导读

STARLINK-4763是美国SpaceX公司星链(Starlink)星座的成员卫星,于2022年9月11日发射升空。作为星链全球卫星互联网项目的一部分,该卫星运行于低地球轨道,旨在为全球提供高速低延迟互联网服务,尤其侧重覆盖传统基础设施难以抵达的偏远区域,助力消除数字鸿沟,同时星链星座也被应用于应急通信等领域,不过大规模低轨卫星组网也引发了太空拥堵等方面的争议。

Basic Information
目录编号:
53805
目录名称:
STARLINK-4763
国际标识:
2022-111AJ
轨道中心:
EARTH
卫星名称:
星链-4763
卫星全名:
星链-4763 (STARLINK-4763 )
卫星状态:
在轨 (已飞行1455 天)
发射日期:
2022-09-11 UTC
国别 :
美国 (US)
星等 :
--
Orbit Information
数据来源 国际轨道数据 AOE轨道数据
星历时间 2026-09-05T08:17:24+0800
12小时前
查看轨道信息
2026-09-01T02:00:00+0800
4天前
查看轨道信息
半长轴 6848.875km 6848.858km
偏心率 0.0001307 0.0001963
轨道倾角 53.160° 53.161°
近地点辐角 91.181° 55.192°
升交点赤经 154.059° 173.903°
平近点角 268.934° 190.184°
近地点 469.842km 469.376km
远地点 471.634km 472.066km
周期 94.013分钟 94.013分钟
每日圈数 15.31701 15.317064
Detailed Information
固有亮度:
5
最大亮度:
2.5
卫星平台:
Starlink v1.5
覆盖范围:
全球
运营商:
太空探索技术公司
运营商所在国:
美国
制造商(研发单位):
太空探索技术公司
制造商所在国:
美国
使用方式:
暂无
Satellite Introduction
星链(Starlink)计划是由太空探索技术公司(SpaceX)提出的一个巨型低轨卫星互联网星座项目,计划在2019年至2024年间在太空搭建由约1.2万颗卫星组成的“星链”网络,其中1584颗将部署在地球上空550千米处的近地轨道,并从2020年开始工作。该卫星仍在工作。
2D Orbit Map
3D Orbit Map
Orbit Altitude Analysis Chart
Orbit Inclination Analysis Chart
Orbit Comprehensive Analysis Chart
View Comprehensive Chart
Conjunction Data List
Event ID Objects TCA Miss Dist (km) Collision Risk Probability Collision Risk Index (CRI) Action
CDM_260905-230004-431005-380523
OBJECT A (44310)
2026-09-05T
23:00:41+0000
2.305 km
极远距离
1.767857E-6 低风险 0.4
CDM_260907-033105-380505-977522
OBJECT C (59775)
2026-09-07T
03:31:14+0000
2.658 km
极远距离
1.4753E-6 低风险 0.38
CDM_260907-061505-380505-719322
2026-09-07T
06:15:30+0000
2.915 km
极远距离
1.384807E-6 低风险 0.38
CDM_260829-190605-380506-914021
2026-08-29T
19:06:39+0000
2.955 km
极远距离
1.224299E-6 低风险 0.37